Regional Weather Roundup
Issued by NWS Little Rock, AR

Home | Current Version | Previous Version | Graphics & Text | Print | Product List | Glossary On
Versions: 1 2 3 4 5 6 7 8 9 10 11 12 13 14 15 16 17 18 19 20 21 22 23 24 25 26 27 28 29 30 31 32 33 34 35 36 37 38 39 40 41 42 43 44 45 46 47 48 49 50
000
ASUS44 KLZK 282205
RWRLZK

WEATHER ROUNDUP FOR ARKANSAS
NATIONAL WEATHER SERVICE LITTLE ROCK AR
500 PM CDT THU MAY 28 2015

NOTE: "FAIR" INDICATES FEW OR NO CLOUDS BELOW 12,000 FEET WITH NO
SIGNIFICANT WEATHER AND/OR OBSTRUCTIONS TO VISIBILITY.

ARZ001-003-010-029-282300-
NORTHWEST ARKANSAS

CITY           SKY/WX    TMP DP  RH WIND       PRES   REMARKS
FAYETTEVILLE   MOSUNNY   76  65  68 S8        30.02F
FORT SMITH     PTSUNNY   78  66  66 VRB6      30.01F
HARRISON       CLOUDY    71  66  84 S9        30.04F
BENTONVILLE    PTSUNNY   75  64  69 S7        30.02F
ROGERS         PTSUNNY   77  66  68 S10       30.03F
SILOAM SPGS    PTSUNNY   75  64  69 S8        30.03F
HIGHFILL       MOSUNNY   75  68  78 S8        30.01F
SPRINGDALE     MOSUNNY   75  66  73 MISG      30.04F
$$

ARZ004-005-016-282300-
NORTH CENTRAL ARKANSAS

CITY           SKY/WX    TMP DP  RH WIND       PRES   REMARKS
BATESVILLE     CLOUDY    79  66  65 SW22G28   30.10R
FLIPPIN          N/A     72  63  73 S6        30.01F
MTN HOME       CLOUDY    71  64  78 S12       30.02F
$$

ARZ040-041-282300-
WEST CENTRAL ARKANSAS

CITY           SKY/WX    TMP DP  RH WIND       PRES   REMARKS
MENA           CLOUDY    72  68  88 NE5       30.06F
MOUNT IDA      CLOUDY    69  66  90 CALM      30.04F
$$

ARZ009-017-025-026-028-282300-
NORTHEAST ARKANSAS

CITY           SKY/WX    TMP DP  RH WIND       PRES   REMARKS
CORNING          N/A     81  66  61 S7        30.09F
JONESBORO      PTSUNNY   80  68  66 S7        30.08F
NEWPORT        PTSUNNY   84  68  58 SW10G25   30.10F HX  87
WALNUT RIDGE   PTSUNNY   81  64  57 S8        30.08F
BLYTHEVILLE    MOSUNNY   81  70  69 SE6       30.09F
$$

ARZ022-023-033-042-044-282300-
CENTRAL ARKANSAS

CITY           SKY/WX    TMP DP  RH WIND       PRES   REMARKS
LITTLE ROCK    CLOUDY    74  66  76 E5        30.07F
N LITTLE ROCK  PTSUNNY   73  70  91 E7        30.07F
JACKSONVILLE   CLOUDY    70  67  89 E3        30.06F
SEARCY         LGT RAIN  71  66  84 SE7       30.09F
HOT SPRINGS    CLOUDY    69  66  90 SE3       30.06F
RUSSELLVILLE   CLOUDY    70  68  93 SE5       30.05F
CLINTON        FAIR      68  68 100 E3        30.08F
$$

ARZ036-282300-
EAST ARKANSAS

CITY           SKY/WX    TMP DP  RH WIND       PRES   REMARKS
WEST MEMPHIS   SUNNY     81  70  69 SW5       30.08F
$$

ARZ050-053-066-070-073-282300-
SOUTHWEST ARKANSAS

CITY           SKY/WX    TMP DP  RH WIND       PRES   REMARKS
ARKADELPHIA    FAIR      70  70 100 CALM      30.06F
CAMDEN         CLOUDY    68  66  94 NE6       30.05F
TEXARKANA      PTSUNNY   77  68  73 E6        30.05F
EL DORADO      CLOUDY    72  69  90 CALM      30.07F
DE QUEEN       PTSUNNY   79  70  74 E25G40    30.02F
$$

ARZ056-057-069-282300-
SOUTHEAST ARKANSAS

CITY           SKY/WX    TMP DP  RH WIND       PRES   REMARKS
PINE BLUFF     LGT RAIN  71  68  90 NE7       30.07F
STUTTGART      PTSUNNY   84  66  54 MISG      30.11R HX  86
MONTICELLO     LGT RAIN  70  69  97 CALM      30.08F FOG

$$




USA.gov is the U.S. government's official web portal to all federal, state and local government web resources and services.